Regional Weather Roundup
Issued by NWS Sterling, VA

Home | Current Version | Previous Version | Graphics & Text | Print | Product List | Glossary On
Versions: 1 2 3 4 5 6 7 8 9 10 11 12 13 14 15 16 17 18 19 20 21 22 23 24 25 26 27 28
000
ASUS41 KLWX 221410
RWRLWX

REGIONAL WEATHER ROUNDUP
NATIONAL WEATHER SERVICE BALTIMORE MD/WASHINGTON DC
1000 AM EDT TUE AUG 22 2017

Note: "FAIR" indicates few or no clouds below 12,000 feet
with no significant weather and/or obstructions to visibility.
 TC=TEMPERATURE CELSIUS

 * =Non NWS site. Station does not report precipitation (e.g. rain,
    snow, etc.), thunder, or fog.

DCZ001-MDZ009-015-VAZ040>042-051-053>054-221500-
WASHINGTON METRO

CITY           SKY/WX    TMP DP  RH WIND       PRES   REMARKS
WASHINGTON NAT MOSUNNY   82  76  81 S9        30.03F
DULLES         MOSUNNY   80  74  81 S5        30.02F
ANDREWS AFB    SUNNY     81  73  75 SW9       30.03F
FT BELVOIR     SUNNY     80  73  77 S7        30.03F
QUANTICO       MOSUNNY   82  76  81 S8        30.04F
COLLEGE PARK*  SUNNY     81  72  75 S7        30.02F
LEESBURG*      SUNNY     82  73  74 S3        30.03F
MANASSAS*      SUNNY     80  74  81 S8        30.03F
GAITHERSBURG*  SUNNY     83  73  72 CALM      30.04F

$$

MDZ006>007-011-014-221500-
BALTIMORE METRO

CITY           SKY/WX    TMP DP  RH WIND       PRES   REMARKS
BWI AIRPORT    MOSUNNY   82  76  81 SW6       30.02F
MD SCIENCE CTR   N/A     83  74  74 MISG      30.02F
MARTIN STATE   MOSUNNY   81  77  89 S5        30.03F
FORT MEADE*    SUNNY     79  73  83 SW6       30.04F

$$

MDZ012-015-019>023-221500-
MARYLAND EASTERN SHORE

CITY           SKY/WX    TMP DP  RH WIND       PRES   REMARKS
OCEAN CITY     SUNNY     83  77  82 SW9       30.07F HX  92
SALISBURY      MOSUNNY   84  77  79 SW15      30.06F HX  94
BAY BRIDGE AP* SUNNY     82  73  74 SW13G18   30.02F
CAMBRIDGE*     SUNNY     82  75  78 SW12      30.04F

$$

MDZ017>025-221500-
SOUTHERN MARYLAND

CITY           SKY/WX    TMP DP  RH WIND       PRES   REMARKS
PATUXENT RIVER MOSUNNY   82  75  79 SW12      30.04F
ST INIGOES     SUNNY     83  77  82 S7        30.04F HX  92
LEONARDTOWN*   SUNNY     81  72  74 SW10      30.06F

$$

MDZ003>005-221500-
NORTH CENTRAL MARYLAND

CITY           SKY/WX    TMP DP  RH WIND       PRES   REMARKS
FREDERICK*     SUNNY     81  75  83 SW6       30.05F
HAGERSTOWN APT SUNNY     80  71  74 S5        30.02F
WESTMINSTER*   SUNNY     81  73  78 W7        30.04S

$$

MDZ501>502-221500-
WESTERN MARYLAND

CITY           SKY/WX    TMP DP  RH WIND       PRES   REMARKS
OAKLAND*       NOT AVBL
CUMBERLAND*    MOSUNNY   72  72 100 CALM      30.07F

$$

VAZ025>031-221500-
SHENANDOAH VALLEY

CITY           SKY/WX    TMP DP  RH WIND       PRES   REMARKS
WINCHESTER*    SUNNY     79  70  73 SW6       30.03F
FRONT ROYAL*   SUNNY     79  72  78 SW8       30.03F
LURAY*         SUNNY     81  72  74 SW7       30.06S
NEW MARKET*    SUNNY     81  70  68 SW8       30.05F
STAUNTON*      SUNNY     79  70  73 S6        30.10F
WAYNESBORO*    SUNNY     81  71  71 SW7       30.10F

$$

WVZ021-048>050-054>055-221500-
EASTERN WEST VIRGINIA PANHANDLE

CITY           SKY/WX    TMP DP  RH WIND       PRES   REMARKS
MARTINSBURG    SUNNY     80  71  74 VRB3      30.01F
PETERSBURG*    SUNNY     79  72  78 CALM      30.05S

$$

VAZ036>039-050-221500-
CENTRAL FOOTHILLS

CITY           SKY/WX    TMP DP  RH WIND       PRES   REMARKS
CHARLOTTESVILL SUNNY     82  72  71 S9        30.05F
CULPEPER*      SUNNY     81  74  77 SW8       30.04F
ORANGE*        SUNNY     81  72  74 CALM      30.04F
GORDONSVILLE*  SUNNY     80  73  79 SW6       30.05F
WARRENTON*     SUNNY     82  71  69 SW7       30.03F

$$

VAZ055>057-221500-
NORTH AND CENTRAL PIEDMONT

CITY           SKY/WX    TMP DP  RH WIND       PRES   REMARKS
FREDERICKSBRG* SUNNY     83  74  73 SW8       30.03F
STAFFORD*      SUNNY     80  76  87 S3        30.08S

$$

NCZ024-NYZ072-PAZ021-071-VAZ022-071-221500-
OTHER REGIONAL OBSERVATIONS

CITY           SKY/WX    TMP DP  RH WIND       PRES   REMARKS
NEW YORK CITY  MOSUNNY   79  73  82 VRB7      30.02F
PHILADELPHIA   CLOUDY    80  73  79 SW10      30.02F
PITTSBURGH     PTSUNNY   79  70  74 SW15G21   29.98F
ROANOKE        MOSUNNY   79  71  76 W8        30.13F
RICHMOND       MOSUNNY   82  75  79 SW9       30.07F
RALEIGH        MOSUNNY   84  75  74 SW6       30.12F HX  92

$$

ANZ530>537-221500-
MARINE OBSERVATIONS

STATION/POSITION TIME  TEMP    WIND        PRES
                       AIR SEA DIR/SP/G
                 (UTC) (F)     (DEG/KT/KT) (MB)
THOMAS PT LIGHT  1300   79 81  210/  7/  8   N/A
BALT KEY BRIDGE  1348   79     200/  7/  8 1016.3F
COVE POINT       1348   82     240/ 14/ 19 1017.7F
LEWISETTA        1348   83 83  230/ 12/ 14 1017.5F
SOLOMONS ISLAND  1348   83 82  230/ 14/ 16   N/A
PINEY POINT      1348          240/  7/ 10   N/A

$$





USA.gov is the U.S. government's official web portal to all federal, state and local government web resources and services.